This demonstration page uses our WeatherBlox Daily Observations layout. Learn more.

Left ArrowRight Arrow

40.92501, -98.34201

Hourly Observations for July 5, 2022

Temp ( °F °C ) Dew Point ( °F °C ) Humidity (%) Winds ( mph kmh ) Pressure ( in mb ) Visibility ( mi km ) Precip ( " mm )
12:53 am 00:53 Clear 82 27.8 66 18.9 58 58 S 9 15 29.80 1009 10 16 0.00 0.00
1:53 am 01:53 Partly Cloudy with Thunderstorms 84 28.9 65 18.3 53 53 SW 16 26 29.79 1009 10 16 0.00 0.00
2:11 am 02:11 Mostly Cloudy with Rain 80 26.7 67 19.4 64 64 SSW 23 37 29.74 1007 4 6 0.02 0.51
2:53 am 02:53 Clear 80 26.7 66 18.9 62 62 S 13 20 29.78 1009 10 16 0.06 1.52
3:53 am 03:53 Cloudy 77 25 67 19.4 71 71 S 9 15 29.80 1009 10 16 0.00 0.00
4:42 am 04:42 Mostly Cloudy with Nearby Thunderstorms 77 25 67 19.4 71 71 SE 7 11 29.78 1008 10 16 0.00 0.00
4:53 am 04:53 Cloudy 77 25 67 19.4 71 71 SE 8 13 29.82 1010 10 16 0.00 0.00
5:53 am 05:53 Cloudy 77 25 66 18.9 69 69 SE 13 20 29.83 1010 10 16 0.00 0.00
6:38 am 06:38 Cloudy with Thunderstorms 76 24.4 66 18.9 72 72 SE 13 20 29.81 1010 10 16 0.00 0.00
6:53 am 06:53 Cloudy with Thunderstorms 75 23.9 67 19.4 76 76 SE 13 20 29.84 1011 4 6 0.01 0.25
7:02 am 07:02 Mostly Cloudy with Thunderstorms 74 23.3 67 19.4 79 79 ESE 12 19 29.81 1009 7 11 0.03 0.76
7:06 am 07:06 Mostly Cloudy with Nearby Thunderstorms 74 23.3 67 19.4 79 79 ESE 12 19 29.82 1010 10 16 0.03 0.76
7:16 am 07:16 Mostly Cloudy 74 23.3 67 19.4 79 79 SE 9 15 29.82 1010 10 16 0.03 0.76
7:53 am 07:53 Cloudy with Light Rain 74 23.3 67 19.4 79 79 SE 15 24 29.84 1010 8 13 0.04 1.02
8:53 am 08:53 Mostly Cloudy 77 25 66 18.9 69 69 ESE 12 19 29.81 1009 10 16 0.03 0.76
9:53 am 09:53 Sunny 79 26.1 66 18.9 65 65 S 12 19 29.81 1009 10 16 0.00 0.00
10:53 am 10:53 Sunny 84 28.9 67 19.4 57 57 SSW 10 17 29.80 1009 10 16 0.00 0.00
11:53 am 11:53 Sunny 88 31.1 69 20.6 54 54 S 10 17 29.81 1010 10 16 0.00 0.00
12:53 pm 12:53 Sunny 90 32.2 69 20.6 50 50 S 8 13 29.81 1010 10 16 0.00 0.00
1:53 pm 13:53 Sunny 91 32.8 68 20 47 47 S 13 20 29.80 1009 10 16 0.00 0.00
2:53 pm 14:53 Sunny 94 34.4 69 20.6 44 44 SSE 9 15 29.78 1009 10 16 0.00 0.00
3:53 pm 15:53 Sunny 96 35.6 67 19.4 39 39 S 12 19 29.77 1008 10 16 0.00 0.00
4:53 pm 16:53 Sunny 97 36.1 69 20.6 40 40 SSE 9 15 29.75 1008 10 16 0.00 0.00
5:53 pm 17:53 Sunny 97 36.1 68 20 39 39 SSE 7 11 29.77 1008 10 16 0.00 0.00
6:09 pm 18:09 Mostly Sunny 95 35 73 22.8 49 49 NNE 16 26 29.70 1006 10 16 0.00 0.00
6:53 pm 18:53 Mostly Cloudy with Rain 77 25 68 20 74 74 NE 22 35 29.84 1011 5 8 0.00 0.00
7:53 pm 19:53 Sunny 78 25.6 67 19.4 69 69 NE 16 26 29.84 1010 10 16 0.01 0.25
8:53 pm 20:53 Sunny 76 24.4 66 18.9 72 72 ENE 12 19 29.83 1010 10 16 0.00 0.00
9:53 pm 21:53 Clear 76 24.4 66 18.9 72 72 E 13 20 29.85 1011 10 16 0.00 0.00
10:53 pm 22:53 Clear 75 23.9 65 18.3 71 71 E 13 20 29.88 1012 10 16 0.00 0.00
11:53 pm 23:53 Cloudy with Light Rain 74 23.3 67 19.4 79 79 SSW 9 15 29.93 1013 10 16 0.00 0.00

Powered by AerisWeather